Location: Gu�tanj
(46.5431°N, 14.9692°E)
Time: 21:46:08
(UTC+00:00)

Daily predictions for brighter satellites

Satellite Brightness Start Highest point End
(mag) Time Altitude Azimuth Time Altitude Azimuth Time Altitude Azimuth
COSMOS 2455 4.4 17:09:17 10° NW 17:14:53 41° WSW 17:20:27 10° S
Cosmos 1980 Rocket 3.3 17:11:39 10° SW 17:17:08 48° WNW 17:22:39 10° NNE
Cosmos 1500 4.5 17:14:38 10° SE 17:17:20 19° E 17:20:03 10° NE
CZ-2D R/B 3.5 17:15:52 10° S 17:19:39 73° W 17:23:28 10° NNW
SJ-11-01 4.4 17:19:26 10° SSE 17:23:58 54° ENE 17:28:34 10° N
ERBS 3.0 17:21:54 10° WSW 17:25:09 51° NW 17:28:24 10° NE
Cosmos 1689 Rocket 2.9 17:22:51 10° NE 17:25:22 27° E 17:27:54 10° SSE
Cosmos 1666 Rocket 3.5 17:22:15 10° S 17:26:34 78° E 17:30:55 10° NNE
BREEZE-M DEB (TANK) 3.7 17:22:25 10° SW 17:28:13 30° SSE 17:30:49 11° E
CZ-2C R/B 3.7 17:22:37 10° S 17:28:20 68° WSW 17:33:51 10° NNW
Cosmos 1862 Rocket 3.7 17:24:14 10° N 17:28:40 57° ENE 17:33:05 10° SSE
Cosmos 2322 Rocket 2.3 17:25:34 10° S 17:31:02 58° ESE 17:36:33 10° NNE
Aureole 2 Rocket 2.4 17:30:38 10° N 17:32:58 31° ENE 17:35:14 10° SE
Sich 1 4.0 17:29:52 10° SSW 17:34:10 54° WNW 17:38:32 10° N
Nadezhda 3 Rocket 4.1 17:29:37 10° N 17:35:56 62° ENE 17:42:15 10° SSE
Cosmos 1461 3.8 17:31:49 10° SW 17:36:30 61° NW 17:41:13 10° NNE
ATLAS 5 CENTAUR R/B 4.2 17:22:15 10° WSW 17:37:09 51° NW 17:41:15 10° NNE
Meteor 1-25 Rocket 4.3 17:32:17 10° S 17:38:03 85° E 17:43:46 10° NNE
COSMOS 2428 4.3 17:39:17 10° ESE 17:41:44 13° E 17:42:29 13° E
Cosmos 2074 Rocket 4.1 17:35:51 10° S 17:42:07 84° W 17:48:25 10° N
Cosmos 2154 Rocket 4.0 17:36:13 10° S 17:42:21 66° E 17:48:30 10° NNE
YAOGAN 1 2.6 17:39:01 10° SSE 17:43:21 88° ENE 17:47:42 10° NNW
Helios 1A Rocket 3.0 17:39:36 10° SSE 17:43:33 53° ENE 17:47:30 10° N
Abrixas rocket 1.8 17:41:50 10° W 17:44:18 59° N 17:45:57 18° ENE
Meteor 1-14 Rocket 4.3 17:40:29 10° SSE 17:45:49 50° E 17:51:10 10° NNE
Cosmos 1610 Rocket 4.5 17:39:55 10° S 17:46:03 70° E 17:52:19 10° NNE
Cosmos 2219 Rocket 3.5 17:45:13 10° SE 17:48:49 18° E 17:52:27 10° ENE
SJ-6B 4.2 17:46:54 14° ESE 17:49:09 22° ENE 17:52:17 10° NNE
COSMO-SKYMED 1 3.9 17:45:33 10° N 17:49:41 44° WNW 17:53:48 10° SW
GP-B 3.5 17:46:44 10° SSE 17:50:53 40° E 17:55:03 10° NNE
Cosmos 1992 Rocket 3.9 17:49:40 10° SSW 17:54:53 74° ESE 18:00:07 10° NNE
Cosmos 2263 Rocket 4.0 17:50:33 10° NW 17:55:31 34° WSW 18:00:28 10° SSW
SL-16 R/B 2.4 17:49:55 10° SSW 17:55:35 76° WNW 18:01:18 10° NNE
Meteor 1-18 Rocket 4.3 17:50:13 10° N 17:56:13 88° E 18:02:07 10° S
ARGOS 3.1 17:50:59 10° SSE 17:56:25 85° ENE 18:01:53 10° NNW
Cosmos 968 Rocket 4.1 17:51:18 10° NNW 17:56:31 61° WSW 18:01:40 10° S
USA 234 3.7 17:52:44 10° ENE 17:58:51 41° SE 18:04:58 10° SSW
Cosmos 1486 Rocket 4.5 17:55:02 10° NNW 18:00:17 65° WSW 18:05:31 10° S
Cosmos 1515 4.1 17:56:37 10° NNW 18:00:26 65° W 18:04:12 10° S
Okean 1 3.6 17:56:30 10° NNW 18:00:31 70° W 18:04:31 10° S
SJ 16-02 3.3 18:00:13 10° NNE 18:02:22 13° NE 18:02:34 13° NE
SeaSat 1 2.5 17:57:31 10° NE 18:02:25 60° ESE 18:07:18 10° SSW
Cosmos 1633 Rocket 3.9 17:58:21 10° SSW 18:02:41 54° WNW 18:07:03 10° N
OBJECT-B 2.4 18:03:22 19° NE 18:03:22 19° NE 18:05:16 10° NNE
Okean 1-7 3.3 17:59:53 10° N 18:04:06 44° ENE 18:08:14 10° SSE
H-2A R/B 2.9 18:02:31 10° S 18:07:51 56° W 18:13:14 10° NNW
CZ-4 R/B 2.8 18:04:15 10° SSW 18:07:53 39° W 18:11:35 10° NNW
CZ-2C R/B 2.6 18:02:29 10° NNE 18:07:59 68° ESE 18:13:19 10° S
Cosmos 2322 4.3 18:03:15 10° SSE 18:08:17 33° ESE 18:13:19 10° NE
SAR-Lupe-4 3.7 18:06:55 10° N 18:10:31 76° WNW 18:14:05 10° SSW
USA 305 4.3 18:08:28 10° WNW 18:12:15 30° N 18:14:50 17° NE
SL-8 Rocket 4.2 18:08:25 10° SSE 18:14:20 48° E 18:20:15 10° NNE
DMSP B5D2-2 4.2 18:09:16 10° NNE 18:14:22 51° E 18:19:25 10° S
Cosmos 2237 4.2 18:09:08 10° SSW 18:14:51 84° ESE 18:20:38 10° NNE
Gbstr 26 Del rocket 4.0 18:10:38 10° WNW 18:15:00 47° N 18:18:26 20° ENE
Cosmos 962 Rocket 4.4 18:10:12 10° S 18:16:21 72° E 18:22:37 10° NNE
SL-4 R/B 2.2 18:14:12 10° WNW 18:17:36 43° NNE 18:18:38 33° ENE
Cosmos 1869 Rocket 4.0 18:15:25 10° SSE 18:19:24 36° E 18:23:27 10° NNE
USA 307 4.3 18:19:49 10° WNW 18:23:36 29° N 18:25:41 20° NE
USA 186 3.0 18:25:07 21° N 18:25:07 21° N 18:26:10 10° N
ATLAS CENTAUR R/B 0.9 18:21:06 10° SW 18:24:42 90° NW 18:26:57 22° NE
FALCON 9 DEB 3.0 18:21:57 10° WNW 18:25:24 87° SSW 18:26:13 49° SE
Cosmos 1339 Rocket 4.4 18:20:44 10° N 18:26:54 66° E 18:33:09 10° SSE
Cosmos 1354 Rocket 4.1 18:21:45 10° NNW 18:27:01 76° WSW 18:32:13 10° SSE
USA 306 4.3 18:23:16 10° WNW 18:27:03 29° N 18:28:56 21° NE
ERS-2 3.3 18:24:14 10° N 18:27:44 43° WNW 18:31:12 10° SW
Okean-O 4.3 18:23:42 10° SSW 18:27:45 34° W 18:31:49 10° NNW
CSL-04 Rocket 4.1 18:23:26 10° S 18:28:56 66° WSW 18:34:26 10° NNW
Cosmos 2366 rocket 4.1 18:23:16 10° SSE 18:29:19 51° E 18:35:26 10° NNE
FALCON 9 DEB 4.4 18:26:41 10° NW 18:29:26 26° N 18:29:48 25° NNE
Cosmos 1844 Rocket 2.7 18:25:16 10° NNW 18:30:52 80° WSW 18:36:09 11° SSE
FALCON 9 DEB 4.4 18:28:37 10° NW 18:31:22 26° N 18:31:45 25° NNE
Cosmos 1666 2.4 18:30:06 10° S 18:33:48 73° E 18:37:32 10° NNE
USA 308 4.3 18:30:29 10° WNW 18:34:16 29° N 18:35:51 23° NE
Cosmos 1777 Rocket 4.0 18:30:32 10° NNW 18:35:45 62° ENE 18:37:59 33° SE
Cosmos 2341 Rocket 4.0 18:31:25 10° S 18:37:44 89° ESE 18:44:04 10° N
SPOT 3 Rocket 4.4 18:37:59 31° ENE 18:38:06 31° ENE 18:42:38 10° N
Meteor 1-5 Rocket 4.0 18:32:46 10° S 18:38:07 89° E 18:43:41 10° NNE
Cosmos 2333 4.1 18:33:12 10° S 18:38:45 62° ESE 18:44:23 10° NNE
Okean 3 3.5 18:38:28 10° N 18:42:40 56° ENE 18:42:57 55° E
Cosmos 1844 3.8 18:36:54 10° NNW 18:42:41 79° WSW 18:46:58 18° SSE
Ariane Rocket 2.9 18:42:04 33° SE 18:44:18 64° ENE 18:49:22 10° N
Cosmos 2360 Rocket 2.5 18:39:20 10° SW 18:44:58 69° WNW 18:50:39 10° NNE
Cosmos 2278 Rocket 3.0 18:43:10 10° NNW 18:48:14 32° NE 18:48:36 32° ENE
Cosmos 1727 Rocket 4.0 18:44:49 10° N 18:50:54 55° ENE 18:52:57 39° SE
Cosmos 1703 Rocket 4.3 18:50:09 10° NNW 18:54:25 51° W 18:58:39 10° S
Cosmos 2333 Rocket 2.1 18:49:24 10° SSW 18:55:01 67° ESE 19:00:42 10° NNE
Cosmos 2218 Rocket 3.9 18:49:55 10° S 18:56:19 82° E 19:02:44 10° N
Cosmos 1943 Rocket 4.3 19:04:41 10° N 19:06:52 12° NNE 19:06:52 12° NNE
Resurs 01 Rocket 2.8 19:12:41 32° NNE 19:12:41 32° NNE 19:15:16 10° N
Cosmos 864 Rocket 4.5 19:06:58 10° S 19:13:07 82° W 19:19:22 10° N
Cosmos 2322 Rocket 4.1 19:10:43 10° WSW 19:15:27 27° NW 19:20:14 10° N
Lacrosse 4 Rocket 3.1 19:12:36 10° SSW 19:14:29 25° SSW 19:14:29 25° SSW
SME Rocket 4.3 19:09:41 10° NNE 19:18:05 77° WNW 19:23:26 10° SSW
SJ-6B 4.2 19:22:30 31° SW 19:23:35 37° W 19:27:23 10° NNW
COSMOS 2428 2.5 19:19:23 10° SSW 19:32:11 - NNE 19:24:51 81° SSE
ASTEX 1 3.9 19:22:37 10° N 19:27:25 58° W 19:30:11 24° SSW
Meteor 1-23 Rocket 4.1 19:24:32 10° NNW 19:30:09 83° W 19:30:27 79° SSW
Meteor 1-11 Rocket 4.2 19:26:17 10° SSW 19:31:56 59° WNW 19:37:30 10° N
Cosmos 2219 Rocket 2.2 19:26:31 10° SSW 19:32:05 75° WNW 19:37:44 10° NNE
OBJECT-B 3.6 19:36:26 18° NW 19:36:26 18° NW 19:37:41 10° NW
SJ 16-02 2.8 19:37:10 10° NNW 19:39:34 32° NNW 19:39:34 32° NNW
USA 234 3.4 19:39:54 44° NE 19:42:07 71° NNW 19:48:38 10° WSW
Meteor 2-20 Rocket 4.5 19:43:33 10° N 19:49:08 75° NNW 19:49:08 75° NNW
Cosmos 2369 Rocket 4.4 19:49:14 10° N 19:50:42 13° NNE 19:50:42 13° NNE
BREEZE-M DEB (TANK) 4.1 19:49:32 10° WNW 19:51:09 35° WNW 19:51:09 35° WNW
ATLAS CENTAUR R/B 4.2 20:02:07 10° WNW 20:03:11 13° NW 20:03:11 13° NW
Cosmos 2278 Rocket 3.7 20:27:06 10° NW 20:30:28 33° WNW 20:30:28 33° WNW
Cosmos 2333 Rocket 4.2 20:35:09 10° WSW 20:39:48 25° NW 20:44:30 10° N
Cosmos 1943 Rocket 4.4 20:46:42 10° NNW 20:48:24 20° NNW 20:48:24 20° NNW
